TimeEST,TemperatureF,Dew PointF,Humidity,Sea Level PressureIn,VisibilityMPH,Wind Direction,Wind SpeedMPH,Gust SpeedMPH,PrecipitationIn,Events,Conditions,WindDirDegrees,DateUTC
12:51 AM,-0.4,-7.6,72,-9999,80.0,NW,20.7,-,N/A,,Scattered Clouds,320,2012-03-06 05:51:00
1:55 AM,-0.4,-7.6,72,-9999,80.0,WNW,23.0,-,N/A,,Clear,300,2012-03-06 06:55:00
2:52 AM,-2.2,-7.6,78,-9999,75.0,NNW,29.9,38.0,N/A,Snow,Blowing Snow,340,2012-03-06 07:52:00
3:53 AM,-5.8,-5.8,100,-9999,0.1,NW,46.0,-,N/A,Fog-Snow,Blowing Snow,320,2012-03-06 08:53:00
4:51 AM,-5.8,-5.8,100,-9999,0.1,NW,56.4,-,N/A,Fog-Snow,Blowing Snow,310,2012-03-06 09:51:00
5:52 AM,-7.6,-34.6,26,-9999,50.0,NW,52.9,-,N/A,Snow,Blowing Snow,310,2012-03-06 10:52:00
6:48 AM,-7.6,-25.6,41,-9999,75.0,NW,56.4,-,N/A,Snow,Blowing Snow,310,2012-03-06 11:48:00
7:50 AM,-5.8,-25.6,38,-9999,100.0,NW,54.1,-,N/A,Snow,Blowing Snow,310,2012-03-06 12:50:00
8:59 AM,-4.0,-13.0,65,-9999,100.0,NW,50.6,-,N/A,Snow,Blowing Snow,310,2012-03-06 13:59:00
9:53 AM,-2.2,-16.6,50,-9999,120.0,NW,44.9,-,N/A,Snow,Blowing Snow,310,2012-03-06 14:53:00
10:54 AM,-0.4,-20.2,39,-9999,120.0,NW,41.4,-,N/A,Snow,Blowing Snow,310,2012-03-06 15:54:00
11:59 AM,1.4,-18.4,39,-9999,120.0,NW,42.6,-,N/A,,Partly Cloudy,320,2012-03-06 16:59:00
12:55 PM,1.4,-14.8,47,-9999,120.0,NW,34.5,-,N/A,,Partly Cloudy,310,2012-03-06 17:55:00
1:52 PM,3.2,-13.0,47,-9999,110.0,NW,43.7,-,N/A,,Partly Cloudy,310,2012-03-06 18:52:00
2:52 PM,3.2,-11.2,51,-9999,100.0,NW,42.6,49.5,N/A,,Partly Cloudy,310,2012-03-06 19:52:00
3:49 PM,5.0,-16.6,36,-9999,100.0,NW,41.4,-,N/A,,Partly Cloudy,310,2012-03-06 20:49:00
4:48 PM,5.0,-9.4,52,-9999,100.0,NW,39.1,-,N/A,,Partly Cloudy,310,2012-03-06 21:48:00
5:51 PM,6.8,-11.2,44,-9999,100.0,WNW,35.7,-,N/A,,Partly Cloudy,300,2012-03-06 22:51:00
6:51 PM,6.8,-9.4,48,-9999,100.0,WNW,36.8,-,N/A,,Partly Cloudy,300,2012-03-06 23:51:00
7:54 PM,6.8,-9.4,48,-9999,100.0,WNW,35.7,-,N/A,,Partly Cloudy,290,2012-03-07 00:54:00
8:51 PM,8.6,-11.2,40,-9999,100.0,West,36.8,-,N/A,,Partly Cloudy,280,2012-03-07 01:51:00
9:53 PM,14.0,5.0,67,-9999,100.0,WNW,43.7,-,N/A,,Scattered Clouds,290,2012-03-07 02:53:00
10:55 PM,15.8,8.6,73,-9999,100.0,West,35.7,-,N/A,,Scattered Clouds,280,2012-03-07 03:55:00
11:55 PM,17.6,3.2,53,-9999,80.0,West,39.1,-,N/A,,Overcast,280,2012-03-07 04:55:00